owner,sensor,date,latitude,longitude,vertical_datum,sea_water_temperature,qcFlag
BP,ioos:station:wmo:42369:2,2020-07-17T15:40:00Z,27.2096,-90.2887,0.4,27.1,11111222
BP,ioos:station:wmo:42369:2,2020-07-17T16:00:00Z,27.2096,-90.2887,0.6,27.6,11111222
BP,ioos:station:wmo:42369:2,2020-07-17T16:20:00Z,27.2096,-90.2887,0.8,28.5,11111222
BP,ioos:station:wmo:42369:2,2020-07-17T16:40:00Z,27.2096,-90.2887,0.7,29.5,11111222
BP,ioos:station:wmo:42369:2,2020-07-18T14:40:00Z,27.2096,-90.2887,1.0,30.9,11111222
BP,ioos:station:wmo:42369:2,2020-07-18T15:00:00Z,27.2096,-90.2887,0.9,31.0,11111222
BP,ioos:station:wmo:42369:2,2020-07-18T15:20:00Z,27.2096,-90.2887,0.7,30.9,11111222
BP,ioos:station:wmo:42369:2,2020-07-18T15:40:00Z,27.2096,-90.2887,0.6,30.7,11111222
BP,ioos:station:wmo:42369:2,2020-07-18T16:00:00Z,27.2096,-90.2887,0.8,30.9,11111222
BP,ioos:station:wmo:42369:2,2020-07-18T16:20:00Z,27.2096,-90.2887,1.3,31.5,11111222
BP,ioos:station:wmo:42369:2,2020-07-18T16:40:00Z,27.2096,-90.2887,0.7,31.7,11111222
BP,ioos:station:wmo:42369:2,2020-07-18T17:00:00Z,27.2096,-90.2887,0.6,31.9,11111222
BP,ioos:station:wmo:42369:2,2020-07-18T17:20:00Z,27.2096,-90.2887,1.0,32.1,11111222
BP,ioos:station:wmo:42369:2,2020-07-18T17:40:00Z,27.2096,-90.2887,0.9,32.9,11111222
BP,ioos:station:wmo:42369:2,2020-07-18T18:00:00Z,27.2096,-90.2887,0.5,33.9,11111222
BP,ioos:station:wmo:42369:2,2020-07-18T18:20:00Z,27.2096,-90.2887,0.3,35.0,11111222
BP,ioos:station:wmo:42369:2,2020-07-18T18:40:00Z,27.2096,-90.2887,0.3,36.0,11133222
BP,ioos:station:wmo:42369:2,2020-07-18T19:00:00Z,27.2096,-90.2887,0.4,36.9,11133222
BP,ioos:station:wmo:42369:2,2020-07-18T19:20:00Z,27.2096,-90.2887,0.2,37.8,11133222
BP,ioos:station:wmo:42369:2,2020-07-18T19:40:00Z,27.2096,-90.2887,0.4,38.5,11133222
BP,ioos:station:wmo:42369:2,2020-07-18T20:00:00Z,27.2096,-90.2887,0.5,39.3,11133222
BP,ioos:station:wmo:42369:2,2020-07-18T20:20:00Z,27.2096,-90.2887,0.4,39.8,11133222
BP,ioos:station:wmo:42369:2,2020-07-18T20:40:00Z,27.2096,-90.2887,0.9,40.4,11144222
BP,ioos:station:wmo:42369:2,2020-07-18T21:00:00Z,27.2096,-90.2887,0.8,40.7,11144222
BP,ioos:station:wmo:42369:2,2020-07-18T21:20:00Z,27.2096,-90.2887,0.6,40.9,11144222
BP,ioos:station:wmo:42369:2,2020-07-18T21:40:00Z,27.2096,-90.2887,1.0,41.0,11144222
BP,ioos:station:wmo:42369:2,2020-07-18T22:00:00Z,27.2096,-90.2887,0.6,41.3,11144222
BP,ioos:station:wmo:42369:2,2020-07-18T22:20:00Z,27.2096,-90.2887,0.7,41.5,11144222
BP,ioos:station:wmo:42369:2,2020-07-18T22:40:00Z,27.2096,-90.2887,0.5,41.6,11144222
BP,ioos:station:wmo:42369:2,2020-07-18T23:00:00Z,27.2096,-90.2887,1.3,41.6,11144222
BP,ioos:station:wmo:42369:2,2020-07-18T23:20:00Z,27.2096,-90.2887,0.9,41.5,11144222
BP,ioos:station:wmo:42369:2,2020-07-18T23:40:00Z,27.2096,-90.2887,1.0,41.3,11144222
BP,ioos:station:wmo:42369:2,2020-07-18T23:59:00Z,27.2096,-90.2887,0.7,40.9,11144222
BP,ioos:station:wmo:42369:2,2020-07-19T00:19:00Z,27.2096,-90.2887,0.4,40.4,11144222
BP,ioos:station:wmo:42369:2,2020-07-19T00:39:00Z,27.2096,-90.2887,0.6,39.9,11133222
BP,ioos:station:wmo:42369:2,2020-07-19T00:59:00Z,27.2096,-90.2887,0.4,39.3,11133222
BP,ioos:station:wmo:42369:2,2020-07-19T01:19:00Z,27.2096,-90.2887,0.4,38.8,11133222
BP,ioos:station:wmo:42369:2,2020-07-19T01:39:00Z,27.2096,-90.2887,0.7,38.2,11133222
BP,ioos:station:wmo:42369:2,2020-07-19T01:59:00Z,27.2096,-90.2887,0.3,37.8,11133222
BP,ioos:station:wmo:42369:2,2020-07-19T02:19:00Z,27.2096,-90.2887,0.5,37.3,11133222
BP,ioos:station:wmo:42369:2,2020-07-19T02:39:00Z,27.2096,-90.2887,0.2,36.8,11133222
BP,ioos:station:wmo:42369:2,2020-07-19T02:59:00Z,27.2096,-90.2887,0.5,36.4,11133222
BP,ioos:station:wmo:42369:2,2020-07-19T03:19:00Z,27.2096,-90.2887,0.5,36.0,11133222
BP,ioos:station:wmo:42369:2,2020-07-19T03:39:00Z,27.2096,-90.2887,0.6,35.6,11133222
BP,ioos:station:wmo:42369:2,2020-07-19T03:59:00Z,27.2096,-90.2887,0.8,35.3,11133222
BP,ioos:station:wmo:42369:2,2020-07-19T04:19:00Z,27.2096,-90.2887,0.5,35.1,11133222
BP,ioos:station:wmo:42369:2,2020-07-19T04:39:00Z,27.2096,-90.2887,0.3,34.8,11111222
BP,ioos:station:wmo:42369:2,2020-07-19T04:59:00Z,27.2096,-90.2887,0.7,34.5,11111222
BP,ioos:station:wmo:42369:2,2020-07-19T05:19:00Z,27.2096,-90.2887,0.2,34.2,11111222
BP,ioos:station:wmo:42369:2,2020-07-19T05:39:00Z,27.2096,-90.2887,0.2,34.0,11111222
BP,ioos:station:wmo:42369:2,2020-07-19T05:59:00Z,27.2096,-90.2887,1.0,33.8,11111222
BP,ioos:station:wmo:42369:2,2020-07-19T06:19:00Z,27.2096,-90.2887,0.5,33.6,11111222
BP,ioos:station:wmo:42369:2,2020-07-19T06:39:00Z,27.2096,-90.2887,0.6,33.4,11111222
BP,ioos:station:wmo:42369:2,2020-07-19T06:59:00Z,27.2096,-90.2887,1.1,33.2,11111222
BP,ioos:station:wmo:42369:2,2020-07-19T07:19:00Z,27.2096,-90.2887,0.7,33.0,11111222
BP,ioos:station:wmo:42369:2,2020-07-19T07:39:00Z,27.2096,-90.2887,0.8,32.9,11111222
BP,ioos:station:wmo:42369:2,2020-07-19T07:59:00Z,27.2096,-90.2887,0.5,32.7,11111222
BP,ioos:station:wmo:42369:2,2020-07-19T08:19:00Z,27.2096,-90.2887,0.9,32.5,11111222
BP,ioos:station:wmo:42369:2,2020-07-19T08:39:00Z,27.2096,-90.2887,0.7,32.4,11111222
BP,ioos:station:wmo:42369:2,2020-07-19T08:59:00Z,27.2096,-90.2887,0.4,32.2,11111222
BP,ioos:station:wmo:42369:2,2020-07-19T09:19:00Z,27.2096,-90.2887,1.1,32.1,11111222
BP,ioos:station:wmo:42369:2,2020-07-19T09:39:00Z,27.2096,-90.2887,1.0,32.0,11111222
BP,ioos:station:wmo:42369:2,2020-07-19T09:59:00Z,27.2096,-90.2887,1.0,31.9,11111222
BP,ioos:station:wmo:42369:2,2020-07-19T10:19:00Z,27.2096,-90.2887,1.1,31.8,11111222
BP,ioos:station:wmo:42369:2,2020-07-19T10:39:00Z,27.2096,-90.2887,0.7,31.7,11111222
BP,ioos:station:wmo:42369:2,2020-07-19T10:59:00Z,27.2096,-90.2887,0.5,31.6,11111222
BP,ioos:station:wmo:42369:2,2020-07-19T11:19:00Z,27.2096,-90.2887,0.9,31.5,11111222
BP,ioos:station:wmo:42369:2,2020-07-19T11:39:00Z,27.2096,-90.2887,0.4,31.4,11111222
BP,ioos:station:wmo:42369:2,2020-07-19T11:59:00Z,27.2096,-90.2887,0.9,31.3,11111222
BP,ioos:station:wmo:42369:2,2020-07-19T12:19:00Z,27.2096,-90.2887,0.9,31.3,11111222
BP,ioos:station:wmo:42369:2,2020-07-19T12:39:00Z,27.2096,-90.2887,0.5,31.3,11111222
BP,ioos:station:wmo:42369:2,2020-07-19T12:59:00Z,27.2096,-90.2887,0.4,31.3,11111222
BP,ioos:station:wmo:42369:2,2020-07-19T13:19:00Z,27.2096,-90.2887,0.7,31.3,11111222
BP,ioos:station:wmo:42369:2,2020-07-19T14:19:00Z,27.2096,-90.2887,0.3,31.4,11111222
BP,ioos:station:wmo:42369:2,2020-07-19T14:39:00Z,27.2096,-90.2887,0.5,31.5,11111222
BP,ioos:station:wmo:42369:2,2020-07-19T14:59:00Z,27.2096,-90.2887,0.7,31.7,11111222
BP,ioos:station:wmo:42369:2,2020-07-19T15:19:00Z,27.2096,-90.2887,0.5,31.9,11111222
BP,ioos:station:wmo:42369:2,2020-07-19T15:39:00Z,27.2096,-90.2887,0.9,32.1,11111222
BP,ioos:station:wmo:42369:2,2020-07-19T15:59:00Z,27.2096,-90.2887,0.8,32.0,11111222
BP,ioos:station:wmo:42369:2,2020-07-19T16:19:00Z,27.2096,-90.2887,0.8,31.2,11111222
BP,ioos:station:wmo:42369:2,2020-07-19T16:39:00Z,27.2096,-90.2887,1.2,30.6,11111222
BP,ioos:station:wmo:42369:2,2020-07-19T16:59:00Z,27.2096,-90.2887,0.7,29.6,11111222
BP,ioos:station:wmo:42369:2,2020-07-19T17:19:00Z,27.2096,-90.2887,0.7,28.9,11111222
BP,ioos:station:wmo:42369:2,2020-07-19T17:39:00Z,27.2096,-90.2887,0.5,27.3,11111222
BP,ioos:station:wmo:42369:2,2020-07-19T17:59:00Z,27.2096,-90.2887,0.8,26.6,11111222
BP,ioos:station:wmo:42369:2,2020-07-19T18:19:00Z,27.2096,-90.2887,0.7,26.8,11111222
BP,ioos:station:wmo:42369:2,2020-07-19T18:39:00Z,27.2096,-90.2887,0.6,27.2,11111222
BP,ioos:station:wmo:42369:2,2020-07-19T18:59:00Z,27.2096,-90.2887,0.6,27.1,11111222
BP,ioos:station:wmo:42369:2,2020-07-19T19:19:00Z,27.2096,-90.2887,0.7,26.7,11111222
BP,ioos:station:wmo:42369:2,2020-07-19T19:39:00Z,27.2096,-90.2887,0.6,26.1,11111222
BP,ioos:station:wmo:42369:2,2020-07-19T19:59:00Z,27.2096,-90.2887,0.4,25.8,11111222
BP,ioos:station:wmo:42369:2,2020-07-19T20:19:00Z,27.2096,-90.2887,0.6,25.9,11111222
BP,ioos:station:wmo:42369:2,2020-07-19T20:39:00Z,27.2096,-90.2887,0.5,26.3,11111222
BP,ioos:station:wmo:42369:2,2020-07-19T20:59:00Z,27.2096,-90.2887,0.7,26.8,11111222
BP,ioos:station:wmo:42369:2,2020-07-19T21:19:00Z,27.2096,-90.2887,0.8,27.3,11111222
BP,ioos:station:wmo:42369:2,2020-07-19T21:39:00Z,27.2096,-90.2887,0.6,27.8,11111222
BP,ioos:station:wmo:42369:2,2020-07-19T21:59:00Z,27.2096,-90.2887,1.1,28.5,11111222
BP,ioos:station:wmo:42369:2,2020-07-19T22:19:00Z,27.2096,-90.2887,0.3,29.1,11111222
BP,ioos:station:wmo:42369:2,2020-07-19T22:39:00Z,27.2096,-90.2887,0.3,29.2,11111222
BP,ioos:station:wmo:42369:2,2020-07-19T22:59:00Z,27.2096,-90.2887,0.4,29.3,11111222
BP,ioos:station:wmo:42369:2,2020-07-19T23:19:00Z,27.2096,-90.2887,0.5,29.2,11111222
BP,ioos:station:wmo:42369:2,2020-07-19T23:39:00Z,27.2096,-90.2887,0.9,29.1,11111222
BP,ioos:station:wmo:42369:2,2020-07-19T23:59:00Z,27.2096,-90.2887,0.3,29.0,11111222
BP,ioos:station:wmo:42369:2,2020-07-20T00:19:00Z,27.2096,-90.2887,0.6,28.7,11111222
BP,ioos:station:wmo:42369:2,2020-07-20T00:39:00Z,27.2096,-90.2887,0.6,28.6,11111222
BP,ioos:station:wmo:42369:2,2020-07-20T00:59:00Z,27.2096,-90.2887,0.7,28.4,11111222
BP,ioos:station:wmo:42369:2,2020-07-20T01:19:00Z,27.2096,-90.2887,0.9,28.3,11111222
BP,ioos:station:wmo:42369:2,2020-07-20T01:39:00Z,27.2096,-90.2887,0.5,28.3,11111222
BP,ioos:station:wmo:42369:2,2020-07-20T01:59:00Z,27.2096,-90.2887,0.8,28.2,11111222
BP,ioos:station:wmo:42369:2,2020-07-20T02:19:00Z,27.2096,-90.2887,0.3,28.1,11111222
BP,ioos:station:wmo:42369:2,2020-07-20T02:39:00Z,27.2096,-90.2887,1.1,28.1,11111222
BP,ioos:station:wmo:42369:2,2020-07-20T02:59:00Z,27.2096,-90.2887,1.0,28.0,11111222
BP,ioos:station:wmo:42369:2,2020-07-20T03:19:00Z,27.2096,-90.2887,0.6,27.9,11111222
BP,ioos:station:wmo:42369:2,2020-07-20T03:39:00Z,27.2096,-90.2887,0.8,27.9,11111222
BP,ioos:station:wmo:42369:2,2020-07-20T03:59:00Z,27.2096,-90.2887,0.9,27.9,11111222
BP,ioos:station:wmo:42369:2,2020-07-20T04:19:00Z,27.2096,-90.2887,0.4,27.9,11111222
BP,ioos:station:wmo:42369:2,2020-07-20T04:39:00Z,27.2096,-90.2887,0.3,27.8,11111222
BP,ioos:station:wmo:42369:2,2020-07-20T04:59:00Z,27.2096,-90.2887,0.8,27.8,11111222
BP,ioos:station:wmo:42369:2,2020-07-20T05:19:00Z,27.2096,-90.2887,0.6,27.8,11111222
BP,ioos:station:wmo:42369:2,2020-07-20T05:39:00Z,27.2096,-90.2887,1.0,27.7,11111222
BP,ioos:station:wmo:42369:2,2020-07-20T05:59:00Z,27.2096,-90.2887,0.4,27.7,11111222
BP,ioos:station:wmo:42369:2,2020-07-20T06:19:00Z,27.2096,-90.2887,0.5,27.7,11111222
BP,ioos:station:wmo:42369:2,2020-07-20T06:39:00Z,27.2096,-90.2887,0.7,27.7,11111222
BP,ioos:station:wmo:42369:2,2020-07-20T06:59:00Z,27.2096,-90.2887,0.0,27.7,11111222
BP,ioos:station:wmo:42369:2,2020-07-20T07:19:00Z,27.2096,-90.2887,0.8,27.6,11111222
BP,ioos:station:wmo:42369:2,2020-07-20T07:39:00Z,27.2096,-90.2887,0.8,27.6,11111222
BP,ioos:station:wmo:42369:2,2020-07-20T07:59:00Z,27.2096,-90.2887,0.8,27.6,11111222
BP,ioos:station:wmo:42369:2,2020-07-20T08:19:00Z,27.2096,-90.2887,0.5,27.7,11111222
BP,ioos:station:wmo:42369:2,2020-07-20T08:39:00Z,27.2096,-90.2887,0.4,27.7,11111222
BP,ioos:station:wmo:42369:2,2020-07-20T08:59:00Z,27.2096,-90.2887,0.6,27.8,11111222
BP,ioos:station:wmo:42369:2,2020-07-20T09:19:00Z,27.2096,-90.2887,0.6,27.8,11111222
BP,ioos:station:wmo:42369:2,2020-07-20T09:39:00Z,27.2096,-90.2887,0.7,27.8,11111222
BP,ioos:station:wmo:42369:2,2020-07-20T09:59:00Z,27.2096,-90.2887,0.1,27.8,11111222
BP,ioos:station:wmo:42369:2,2020-07-20T10:19:00Z,27.2096,-90.2887,0.4,27.7,11111222
BP,ioos:station:wmo:42369:2,2020-07-20T10:39:00Z,27.2096,-90.2887,0.1,27.7,11111222
BP,ioos:station:wmo:42369:2,2020-07-20T10:59:00Z,27.2096,-90.2887,0.6,27.6,11111222
BP,ioos:station:wmo:42369:2,2020-07-20T11:19:00Z,27.2096,-90.2887,0.7,27.6,11111222
BP,ioos:station:wmo:42369:2,2020-07-20T11:39:00Z,27.2096,-90.2887,0.3,27.7,11111222
BP,ioos:station:wmo:42369:2,2020-07-20T11:59:00Z,27.2096,-90.2887,0.7,27.9,11111222
BP,ioos:station:wmo:42369:2,2020-07-20T12:19:00Z,27.2096,-90.2887,0.7,28.3,11111222
BP,ioos:station:wmo:42369:2,2020-07-20T12:39:00Z,27.2096,-90.2887,0.9,28.5,11111222
BP,ioos:station:wmo:42369:2,2020-07-20T12:59:00Z,27.2096,-90.2887,0.4,28.8,11111222
BP,ioos:station:wmo:42369:2,2020-07-20T13:19:00Z,27.2096,-90.2887,0.3,29.0,11111222
BP,ioos:station:wmo:42369:2,2020-07-20T13:39:00Z,27.2096,-90.2887,0.5,29.4,11111222
BP,ioos:station:wmo:42369:2,2020-07-20T13:59:00Z,27.2096,-90.2887,0.5,30.0,11111222
BP,ioos:station:wmo:42369:2,2020-07-20T14:19:00Z,27.2096,-90.2887,0.3,30.2,11111222
BP,ioos:station:wmo:42369:2,2020-07-20T14:39:00Z,27.2096,-90.2887,0.6,30.4,11111222
BP,ioos:station:wmo:42369:2,2020-07-20T14:59:00Z,27.2096,-90.2887,0.8,30.7,11111222
BP,ioos:station:wmo:42369:2,2020-07-20T15:19:00Z,27.2096,-90.2887,0.7,30.6,11111222
BP,ioos:station:wmo:42369:2,2020-07-20T15:39:00Z,27.2096,-90.2887,0.5,30.3,11111222
BP,ioos:station:wmo:42369:2,2020-07-20T15:59:00Z,27.2096,-90.2887,0.3,30.0,11111222
BP,ioos:station:wmo:42369:2,2020-07-20T16:19:00Z,27.2096,-90.2887,0.1,29.8,11111222
BP,ioos:station:wmo:42369:2,2020-07-20T16:39:00Z,27.2096,-90.2887,0.4,28.0,11111222
BP,ioos:station:wmo:42369:2,2020-07-20T16:59:00Z,27.2096,-90.2887,0.1,27.7,11111222
BP,ioos:station:wmo:42369:2,2020-07-20T17:19:00Z,27.2096,-90.2887,0.9,26.9,11111222
BP,ioos:station:wmo:42369:2,2020-07-20T17:39:00Z,27.2096,-90.2887,0.9,26.6,11111222
BP,ioos:station:wmo:42369:2,2020-07-20T17:59:00Z,27.2096,-90.2887,0.5,26.5,11111222
BP,ioos:station:wmo:42369:2,2020-07-20T18:19:00Z,27.2096,-90.2887,0.4,26.7,11111222
BP,ioos:station:wmo:42369:2,2020-07-20T18:39:00Z,27.2096,-90.2887,1.2,27.0,11111222
BP,ioos:station:wmo:42369:2,2020-07-20T18:59:00Z,27.2096,-90.2887,0.7,27.3,11111222
BP,ioos:station:wmo:42369:2,2020-07-20T19:19:00Z,27.2096,-90.2887,0.3,27.5,11111222
BP,ioos:station:wmo:42369:2,2020-07-20T19:39:00Z,27.2096,-90.2887,0.0,27.6,11111222
BP,ioos:station:wmo:42369:2,2020-07-20T19:59:00Z,27.2096,-90.2887,0.8,27.7,11111222
BP,ioos:station:wmo:42369:2,2020-07-20T20:19:00Z,27.2096,-90.2887,0.8,27.6,11111222
BP,ioos:station:wmo:42369:2,2020-07-20T20:39:00Z,27.2096,-90.2887,0.6,27.6,11111222
BP,ioos:station:wmo:42369:2,2020-07-20T20:59:00Z,27.2096,-90.2887,0.5,27.6,11111222
BP,ioos:station:wmo:42369:2,2020-07-20T21:19:00Z,27.2096,-90.2887,0.4,27.8,11111222
BP,ioos:station:wmo:42369:2,2020-07-20T21:39:00Z,27.2096,-90.2887,0.9,28.0,11111222
BP,ioos:station:wmo:42369:2,2020-07-20T21:59:00Z,27.2096,-90.2887,0.4,28.3,11111222
BP,ioos:station:wmo:42369:2,2020-07-20T22:19:00Z,27.2096,-90.2887,0.5,28.6,11111222
BP,ioos:station:wmo:42369:2,2020-07-20T22:39:00Z,27.2096,-90.2887,0.4,28.8,11111222
BP,ioos:station:wmo:42369:2,2020-07-20T22:59:00Z,27.2096,-90.2887,0.2,29.0,11111222
BP,ioos:station:wmo:42369:2,2020-07-20T23:19:00Z,27.2096,-90.2887,0.4,29.1,11111222
BP,ioos:station:wmo:42369:2,2020-07-20T23:39:00Z,27.2096,-90.2887,0.3,29.0,11111222
BP,ioos:station:wmo:42369:2,2020-07-20T23:59:00Z,27.2096,-90.2887,0.5,28.9,11111222
BP,ioos:station:wmo:42369:2,2020-07-21T00:19:00Z,27.2096,-90.2887,0.6,28.8,11111222
BP,ioos:station:wmo:42369:2,2020-07-21T00:39:00Z,27.2096,-90.2887,0.4,28.6,11111222
BP,ioos:station:wmo:42369:2,2020-07-21T00:59:00Z,27.2096,-90.2887,0.6,28.4,11111222
BP,ioos:station:wmo:42369:2,2020-07-21T01:19:00Z,27.2096,-90.2887,0.4,28.3,11111222
BP,ioos:station:wmo:42369:2,2020-07-21T01:39:00Z,27.2096,-90.2887,0.6,28.2,11111222
BP,ioos:station:wmo:42369:2,2020-07-21T01:59:00Z,27.2096,-90.2887,0.7,28.1,11111222
BP,ioos:station:wmo:42369:2,2020-07-21T02:19:00Z,27.2096,-90.2887,0.4,28.1,11111222
BP,ioos:station:wmo:42369:2,2020-07-21T02:39:00Z,27.2096,-90.2887,0.5,28.0,11111222
BP,ioos:station:wmo:42369:2,2020-07-21T02:59:00Z,27.2096,-90.2887,0.4,27.9,11111222
BP,ioos:station:wmo:42369:2,2020-07-31T12:59:00Z,27.1989,-90.2835,448.4,8.3,11113222
BP,ioos:station:wmo:42369:2,2020-07-31T13:19:00Z,27.1989,-90.2834,448.1,8.3,11113222
BP,ioos:station:wmo:42369:2,2020-07-31T13:39:00Z,27.1989,-90.2833,447.9,8.4,11113222
BP,ioos:station:wmo:42369:2,2020-07-31T13:59:00Z,27.1989,-90.2832,449.2,8.4,11113222
BP,ioos:station:wmo:42369:2,2020-07-31T14:19:00Z,27.1989,-90.2831,448.4,8.4,11113222
BP,ioos:station:wmo:42369:2,2020-07-31T14:39:00Z,27.1989,-90.2830,448.6,8.4,11113222
BP,ioos:station:wmo:42369:2,2020-07-31T14:59:00Z,27.1989,-90.2829,448.1,8.4,11113222
BP,ioos:station:wmo:42369:2,2020-07-31T15:19:00Z,27.1989,-90.2828,448.7,8.4,11113222
BP,ioos:station:wmo:42369:2,2020-07-31T15:39:00Z,27.1988,-90.2827,448.4,8.4,11113222
BP,ioos:station:wmo:42369:2,2020-07-31T15:59:00Z,27.1988,-90.2826,448.2,8.4,11113222
BP,ioos:station:wmo:42369:2,2020-07-31T16:19:00Z,27.1988,-90.2825,447.9,8.4,11113222
BP,ioos:station:wmo:42369:2,2020-07-31T16:39:00Z,27.1988,-90.2824,448.4,8.4,11113222
BP,ioos:station:wmo:42369:2,2020-07-31T16:59:00Z,27.1988,-90.2822,447.5,8.4,11113222
BP,ioos:station:wmo:42369:2,2020-07-31T17:19:00Z,27.1988,-90.2821,448.5,8.4,11113222
BP,ioos:station:wmo:42369:2,2020-07-31T17:39:00Z,27.1988,-90.2820,448.6,8.4,11113222
BP,ioos:station:wmo:42369:2,2020-07-31T17:59:00Z,27.1988,-90.2819,448.0,8.5,11113222
BP,ioos:station:wmo:42369:2,2020-07-31T18:19:00Z,27.1988,-90.2817,448.5,8.5,11113222
BP,ioos:station:wmo:42369:2,2020-07-31T18:39:00Z,27.1988,-90.2815,448.3,8.6,11113222
BP,ioos:station:wmo:42369:2,2020-07-31T18:59:00Z,27.1988,-90.2814,448.3,8.6,11113222
BP,ioos:station:wmo:42369:2,2020-07-31T19:19:00Z,27.1988,-90.2813,448.4,8.6,11113222
BP,ioos:station:wmo:42369:2,2020-07-31T19:39:00Z,27.1988,-90.2812,448.4,8.6,11113222
BP,ioos:station:wmo:42369:2,2020-07-31T19:59:00Z,27.1988,-90.2812,448.4,8.6,11113222
BP,ioos:station:wmo:42369:2,2020-07-31T20:19:00Z,27.1987,-90.2812,448.8,8.7,11113222
BP,ioos:station:wmo:42369:2,2020-07-31T20:39:00Z,27.1987,-90.2812,448.4,8.7,11113222
BP,ioos:station:wmo:42369:2,2020-07-31T20:59:00Z,27.1987,-90.2813,448.1,8.6,11113222
BP,ioos:station:wmo:42369:2,2020-07-31T21:19:00Z,27.1987,-90.2813,448.3,8.6,11113222
BP,ioos:station:wmo:42369:2,2020-07-31T21:39:00Z,27.1986,-90.2814,448.6,8.5,11113222
BP,ioos:station:wmo:42369:2,2020-07-31T21:59:00Z,27.1986,-90.2815,449.0,8.5,11113222
BP,ioos:station:wmo:42369:2,2020-07-31T22:19:00Z,27.1986,-90.2814,449.2,8.5,11113222
BP,ioos:station:wmo:42369:2,2020-07-31T22:39:00Z,27.1986,-90.2813,449.0,8.5,11113222
BP,ioos:station:wmo:42369:2,2020-07-31T22:59:00Z,27.1986,-90.2814,449.9,8.4,11113222
BP,ioos:station:wmo:42369:2,2020-07-31T23:19:00Z,27.1986,-90.2815,448.9,8.4,11113222
BP,ioos:station:wmo:42369:2,2020-07-31T23:39:00Z,27.1987,-90.2816,449.3,8.4,11113222
BP,ioos:station:wmo:42369:2,2020-07-31T23:59:00Z,27.1986,-90.2816,449.3,8.4,11113222
